DAL6418 KSYR-SEQM

Flight info

Callsign DAL6418
Flight time N/A
Altitude 38000
Route SYR DCT CFB DCT LRP DCT ORF DCT ECG DCT STIKK DCT KW24Y/M081F380 DCT 31N076W/M081F400 DCT MAPYL/N0462F400 DCT EXTER DCT DONEZ DCT CILEX DCT UHG DCT VIKRO/N0468F390 UL347 HANCK UP406 MEVUB/N0464F400 DCT ANRON DCT PUKAM DCT BOKAN UP778 QIT DCT QM003 DCT ARC20
Aircraft A333/H-SDE3GHIJ2J3J5M1RVWXY/LB2D1

Departure

Time 2026-04-26 19:46
Airport Syracuse Hancock International Airport (KSYR)

Arrival

Time N/A
Airport Mariscal Sucre International Airport (SEQM)
Time Latitude Longitude Altitude Speed Heading
2026-04-26 19:10 43.10686 -76.11745 432 ft 0 kts 177°
2026-04-26 19:11 43.10682 -76.11843 431 ft 0 kts 177°
2026-04-26 19:26 43.10676 -76.11843 431 ft 0 kts 177°
2026-04-26 19:28 43.10683 -76.11843 419 ft 2 kts 179°
2026-04-26 19:29 43.10700 -76.11842 426 ft 2 kts 193°
2026-04-26 19:29 43.10715 -76.11835 418 ft 2 kts 222°
2026-04-26 19:29 43.10724 -76.11816 418 ft 2 kts 260°
2026-04-26 19:29 43.10725 -76.11805 420 ft 0 kts 266°
2026-04-26 19:31 43.10725 -76.11806 420 ft 0 kts 266°
2026-04-26 19:32 43.10725 -76.11813 419 ft 1 kts 266°
2026-04-26 19:32 43.10724 -76.11823 417 ft 2 kts 266°
2026-04-26 19:32 43.10722 -76.11863 418 ft 5 kts 266°
2026-04-26 19:33 43.10720 -76.11917 418 ft 6 kts 267°
2026-04-26 19:33 43.10717 -76.11979 423 ft 7 kts 262°
2026-04-26 19:33 43.10702 -76.12037 425 ft 6 kts 245°
2026-04-26 19:33 43.10686 -76.12086 424 ft 6 kts 251°
2026-04-26 19:34 43.10677 -76.12154 435 ft 9 kts 263°
2026-04-26 19:34 43.10676 -76.12191 430 ft 3 kts 267°
2026-04-26 19:34 43.10673 -76.12258 434 ft 8 kts 267°
2026-04-26 19:34 43.10670 -76.12336 434 ft 8 kts 267°
2026-04-26 19:35 43.10668 -76.12408 425 ft 7 kts 267°
2026-04-26 19:35 43.10667 -76.12464 427 ft 5 kts 269°
2026-04-26 19:35 43.10667 -76.12474 427 ft 0 kts 271°
2026-04-26 19:37 43.10669 -76.12493 426 ft 3 kts 282°
2026-04-26 19:37 43.10680 -76.12518 426 ft 2 kts 310°
2026-04-26 19:37 43.10707 -76.12537 425 ft 5 kts 341°
2026-04-26 19:37 43.10710 -76.12538 427 ft 0 kts 345°
2026-04-26 19:39 43.10714 -76.12539 424 ft 1 kts 345°
2026-04-26 19:39 43.10717 -76.12540 426 ft 0 kts 348°
2026-04-26 19:44 43.10725 -76.12542 422 ft 7 kts 349°
2026-04-26 19:44 43.10799 -76.12533 422 ft 11 kts 29°
2026-04-26 19:45 43.10822 -76.12462 430 ft 8 kts 80°
2026-04-26 19:45 43.10827 -76.12415 435 ft 8 kts 82°
2026-04-26 19:45 43.10831 -76.12291 425 ft 34 kts 87°
2026-04-26 19:45 43.10862 -76.11367 431 ft 109 kts 87°
2026-04-26 19:46 43.10904 -76.10110 422 ft 154 kts 86°
2026-04-26 19:46 43.10944 -76.08652 906 ft 152 kts 89°
2026-04-26 19:46 43.10973 -76.07130 1121 ft 170 kts 88°
2026-04-26 19:46 43.10988 -76.05425 1402 ft 185 kts 89°
2026-04-26 19:47 43.10989 -76.04230 1619 ft 195 kts 89°
2026-04-26 19:47 43.10984 -76.02954 1763 ft 210 kts 88°
2026-04-26 19:47 43.11022 -75.99323 2099 ft 248 kts 76°
2026-04-26 19:47 43.11761 -75.97206 2623 ft 251 kts 48°
2026-04-26 19:48 43.13051 -75.95590 3301 ft 253 kts 37°
2026-04-26 19:48 43.14467 -75.94145 3804 ft 254 kts 35°
2026-04-26 19:48 43.15905 -75.92743 3958 ft 254 kts 34°
2026-04-26 19:48 43.16920 -75.91949 3963 ft 254 kts 20°
2026-04-26 19:49 43.18656 -75.91660 3969 ft 254 kts 354°
2026-04-26 19:49 43.20400 -75.92141 3963 ft 257 kts 343°
2026-04-26 19:49 43.21991 -75.93263 3968 ft 260 kts 322°
2026-04-26 19:49 43.23252 -75.96001 3962 ft 263 kts 282°
2026-04-26 19:50 43.23238 -75.98502 3971 ft 265 kts 261°
2026-04-26 19:50 43.22722 -76.00938 3968 ft 268 kts 250°
2026-04-26 19:50 43.22230 -76.02501 3968 ft 269 kts 246°
2026-04-26 19:50 43.21395 -76.04796 3963 ft 269 kts 243°
2026-04-26 19:51 43.20533 -76.07067 3967 ft 269 kts 243°
2026-04-26 19:51 43.19689 -76.09353 3967 ft 269 kts 245°
2026-04-26 19:51 43.18881 -76.11659 3961 ft 269 kts 245°
2026-04-26 19:51 43.18101 -76.13991 3960 ft 269 kts 246°
2026-04-26 19:52 43.17343 -76.16329 4093 ft 267 kts 246°
2026-04-26 19:52 43.16576 -76.18673 4472 ft 274 kts 241°
2026-04-26 19:52 43.15283 -76.20579 5189 ft 276 kts 207°
2026-04-26 19:52 43.13471 -76.21310 5990 ft 273 kts 183°
2026-04-26 19:53 43.11591 -76.21265 6625 ft 276 kts 171°
2026-04-26 19:53 43.09676 -76.20883 6915 ft 280 kts 168°
2026-04-26 19:53 43.07754 -76.20427 6967 ft 281 kts 168°
2026-04-26 19:53 43.05817 -76.20023 7105 ft 282 kts 171°
2026-04-26 19:54 43.03855 -76.19710 7602 ft 287 kts 173°
2026-04-26 19:54 43.01854 -76.19474 8321 ft 291 kts 174°
2026-04-26 19:54 42.99827 -76.19293 8812 ft 294 kts 176°
2026-04-26 19:54 42.97773 -76.19145 8954 ft 297 kts 176°
2026-04-26 19:55 42.95709 -76.19015 9186 ft 298 kts 176°
2026-04-26 19:55 42.93643 -76.18890 9732 ft 304 kts 177°
2026-04-26 19:55 42.91504 -76.18756 10310 ft 315 kts 177°
2026-04-26 19:55 42.89251 -76.18611 10571 ft 335 kts 177°
2026-04-26 19:56 42.86854 -76.18452 10805 ft 354 kts 177°
2026-04-26 19:56 42.84331 -76.18281 11105 ft 370 kts 177°
2026-04-26 19:56 42.81728 -76.18105 11617 ft 378 kts 177°
2026-04-26 19:56 42.79085 -76.17924 12208 ft 383 kts 178°
2026-04-26 19:57 42.76427 -76.17745 12803 ft 387 kts 178°
2026-04-26 19:57 42.73695 -76.17560 13458 ft 393 kts 178°
2026-04-26 19:57 42.70989 -76.17375 14127 ft 398 kts 178°
2026-04-26 19:57 42.68208 -76.17186 14646 ft 402 kts 178°
2026-04-26 19:58 42.65399 -76.16995 15141 ft 406 kts 178°
2026-04-26 19:58 42.62560 -76.16802 15647 ft 411 kts 178°